,

(GMT )
Argentia

Weather History for CWAR - November, 2013

Change the Weather History Date:

Saturday, November 23, 2013

  Actual Average Record
Temperature  
Mean Temperature 38 °F -  
Max Temperature 40 °F - - ()
Min Temperature 36 °F - - ()
Degree Days  
Heating Degree Days 27    
Moisture  
Dew Point 34 °F    
Average Humidity 84    
Maximum Humidity 95    
Minimum Humidity 74    
Precipitation  
Precipitation 0.03 in - - ()
Sea Level Pressure  
Sea Level Pressure 29.36 in    
Wind  
Wind Speed 15 mph ()    
Max Wind Speed 33 mph    
Max Gust Speed 45 mph    
T = Trace of Precipitation, MM = Missing Value Source: Averaged Metar Reports

Daily Weather History Graph

Daily Weather History Graph

Search for Another Location

Airport or City:

Trip Planner

Search our weather history database for the weather conditions in past years. The results will help you decide how hot, cold, wet, or windy it might be!

Date:

Astronomy

Nov. 23, 2013 Rise Set
Actual Time 7:21 AM NST 4:22 PM NST
Civil Twilight 6:47 AM NST 4:56 PM NST
Nautical Twilight 6:09 AM NST 5:34 PM NST
Astronomical Twilight 5:33 AM NST 6:11 PM NST
Moon 9:54 PM NST (11/23) 11:28 AM NST (11/23)
Length of Visible Light 10h 09m
Length of Day
9h 00m
Waning Gibbous, 70% of the Moon is Illuminated
Nov 23
Waning Gibbous
Nov 25
Last Quarter
Dec 2
New
Dec 9
First Quarter
Dec 17
Full

Hourly Weather History & Observations

Time (NST) Temp. Windchill Dew Point Humidity Pressure Visibility Wind Dir Wind Speed Gust Speed Precip Events Conditions
12:30 AM 36.9 °F 26.8 °F 34.2 °F 90% 29.47 in - NNW 18.4 mph - N/A   Unknown
1:30 AM 36.7 °F 27.2 °F 34.9 °F 93% 29.47 in - NNW 16.1 mph - N/A   Unknown
2:30 AM 36 °F - 34 °F 88% 29.47 in - NW 16.1 mph - -  
2:30 AM 36.5 °F 27.0 °F 33.8 °F 90% 29.47 in - NW 16.1 mph 21.9 mph N/A   Unknown
3:30 AM 36.5 °F 28.2 °F 33.1 °F 87% 29.46 in - NW 12.7 mph - N/A   Unknown
4:30 AM 36.5 °F 27.4 °F 31.6 °F 83% 29.45 in - NW 15.0 mph - N/A   Unknown
5:30 AM 36 °F - 32 °F 78% 29.45 in - NW 10.4 mph - -  
5:30 AM 36.3 °F 28.9 °F 31.6 °F 83% 29.45 in - NW 10.4 mph - N/A   Unknown
6:30 AM 36.5 °F 28.7 °F 31.8 °F 83% 29.44 in - WNW 11.5 mph - N/A   Unknown
7:30 AM 36.5 °F 28.7 °F 32.9 °F 87% 29.44 in - WNW 11.5 mph - N/A   Unknown
8:30 AM 37 °F - 33 °F 79% 29.44 in - WNW 11.5 mph - -  
8:30 AM 36.9 °F 29.1 °F 31.3 °F 80% 29.44 in - WNW 11.5 mph - N/A   Unknown
9:30 AM 37.8 °F 31.8 °F 31.3 °F 77% 29.42 in - West 8.1 mph - N/A   Unknown
10:30 AM 37.9 °F 28.9 °F 33.4 °F 84% 29.42 in - West 16.1 mph - N/A   Unknown
11:30 AM 39 °F - 34 °F 74% 29.40 in - West 18.4 mph - -  
11:30 AM 38.8 °F 29.4 °F 33.6 °F 82% 29.40 in - West 18.4 mph - N/A   Unknown
12:30 PM 39.7 °F 30.9 °F 34.2 °F 80% 29.37 in - WSW 17.3 mph - N/A   Unknown
1:30 PM 40.1 °F 31.6 °F 35.4 °F 83% 29.35 in - WSW 16.1 mph 23.0 mph N/A   Unknown
2:30 PM 40 °F - 35 °F 78% 29.33 in - WSW 16.1 mph - -  
2:30 PM 39.7 °F 31.2 °F 35.4 °F 85% 29.33 in - WSW 16.1 mph - N/A   Unknown
3:30 PM 40.1 °F 31.0 °F 36.7 °F 88% 29.32 in - WSW 18.4 mph - N/A   Unknown
4:30 PM 40.1 °F 30.7 °F 36.0 °F 85% 29.31 in - SW 19.6 mph - N/A   Unknown
5:30 PM 40 °F - 36 °F 79% 29.29 in - SW 21.9 mph - -  
5:30 PM 40.5 °F 30.7 °F 35.8 °F 83% 29.29 in - SW 21.9 mph 27.6 mph N/A   Unknown
6:30 PM 39.9 °F 29.5 °F 34.9 °F 82% 29.29 in - SW 24.2 mph 31.1 mph N/A   Unknown
7:30 PM 39.2 °F 28.7 °F 35.1 °F 85% 29.27 in - SW 23.0 mph - N/A   Unknown
8:30 PM 39 °F - 35 °F 80% 29.26 in - SW 18.4 mph - -  
8:30 PM 38.8 °F 29.4 °F 34.9 °F 86% 29.26 in - SW 18.4 mph - N/A   Unknown
9:30 PM 39.2 °F 30.2 °F 35.4 °F 86% 29.23 in - SSW 17.3 mph - N/A   Unknown
10:30 PM 39.9 °F 30.0 °F 38.5 °F 95% 29.20 in - SSW 21.9 mph 28.8 mph N/A   Unknown
11:30 PM 38 °F - 37 °F 93% 29.19 in - SW 33.4 mph - -  
11:30 PM 37.9 °F 25.1 °F 36.7 °F 95% 29.19 in - SW 33.4 mph 44.9 mph 0.03 in   Unknown